Ashtabula, OH

10:35 PM EDT on July 21, 2017 (GMT -0400)
Ashtabula County

Weather History for KHZY - March, 2014

Change the Weather History Date:

Tuesday, March 25, 2014

  Actual Average (KGKJ) Record (KGKJ)
Temperature  
Mean Temperature 24 °F -  
Max Temperature 34 °F 45 °F 70 °F (1963)
Min Temperature 15 °F 23 °F 3 °F (1974)
Degree Days  
Heating Degree Days 40    
Moisture  
Dew Point 17 °F    
Average Humidity 74    
Maximum Humidity 86    
Minimum Humidity 35    
Precipitation  
Precipitation 0.00 in - - ()
Sea Level Pressure  
Sea Level Pressure 29.98 in    
Wind  
Wind Speed 7 mph (WNW)    
Max Wind Speed 14 mph    
Max Gust Speed 23 mph    
Visibility 5 miles    
Events Fog , Snow    
Averages and records for this station are not official NWS values.
T = Trace of Precipitation, MM = Missing Value Source: NWS Daily Summary

Daily Weather History Graph

Daily Weather History Graph

Search for Another Location

Airport or City:

Trip Planner

Search our weather history database for the weather conditions in past years. The results will help you decide how hot, cold, wet, or windy it might be!

Date:

Astronomy

Mar. 25, 2014 Rise Set
Actual Time 7:17 AM EDT 7:40 PM EDT
Civil Twilight 6:49 AM EDT 8:08 PM EDT
Nautical Twilight 6:17 AM EDT 8:41 PM EDT
Astronomical Twilight 5:43 AM EDT 9:14 PM EDT
Moon 3:42 AM EDT (3/25) 2:05 PM EDT (3/25)
Length of Visible Light 13h 18m
Length of Day
12h 22m
Waning Crescent, 32% of the Moon is Illuminated
Mar 25
Waning Crescent
Mar 30
New
Apr 7
First Quarter
Apr 15
Full
Apr 22
Last Quarter

Hourly Weather History & Observations

Time (EDT) Temp. Windchill Dew Point Humidity Pressure Visibility Wind Dir Wind Speed Gust Speed Precip Events Conditions
12:53 AM 19.9 °F 13.4 °F 9.0 °F 62% 30.10 in 10.0 mi South 4.6 mph - N/A   Scattered Clouds
1:53 AM 21.9 °F 17.2 °F 10.9 °F 63% 30.09 in 10.0 mi West 3.5 mph - N/A   Overcast
2:53 AM 19.9 °F 13.4 °F 10.9 °F 68% 30.07 in 10.0 mi SW 4.6 mph - N/A   Clear
3:53 AM 19.0 °F 13.9 °F 10.0 °F 68% 30.06 in 10.0 mi WSW 3.5 mph - N/A   Clear
4:53 AM 18.0 °F - 10.9 °F 74% 30.06 in 10.0 mi Calm Calm - N/A   Clear
5:53 AM 16.0 °F - 10.0 °F 77% 30.04 in 10.0 mi Calm Calm - N/A   Clear
6:53 AM 15.1 °F 9.4 °F 10.0 °F 80% 30.02 in 10.0 mi SSE 3.5 mph - N/A   Clear
7:53 AM 17.1 °F 11.7 °F 10.0 °F 74% 30.01 in 10.0 mi SSE 3.5 mph - N/A   Clear
8:53 AM 21.9 °F 12.5 °F 12.9 °F 68% 30.00 in 10.0 mi South 8.1 mph - N/A   Clear
9:53 AM 26.1 °F 16.2 °F 12.9 °F 58% 29.99 in 10.0 mi South 10.4 mph 17.3 mph N/A   Partly Cloudy
10:53 AM 28.9 °F 18.2 °F 12.0 °F 49% 29.97 in 10.0 mi South 13.8 mph - N/A   Clear
11:53 AM 32.0 °F 22.5 °F 12.0 °F 44% 29.97 in 10.0 mi SSW 12.7 mph 18.4 mph N/A   Mostly Cloudy
12:53 PM 33.1 °F 24.9 °F 10.0 °F 38% 29.95 in 10.0 mi West 10.4 mph 23.0 mph N/A   Mostly Cloudy
1:53 PM 34.0 °F 25.5 °F 9.0 °F 35% 29.94 in 10.0 mi SW 11.5 mph - N/A   Overcast
2:53 PM 33.1 °F 26.9 °F 10.0 °F 38% 29.93 in 10.0 mi WSW 6.9 mph 21.9 mph N/A   Overcast
3:53 PM 30.9 °F 22.8 °F 21.0 °F 67% 29.92 in 10.0 mi NW 9.2 mph - N/A   Overcast
4:29 PM 28.4 °F 17.5 °F 21.2 °F 74% 29.89 in 3.0 mi NW 13.8 mph 21.9 mph 0.00 in Snow Light Snow
4:45 PM 28.4 °F 19.1 °F 21.2 °F 74% 29.90 in 1.8 mi NW 10.4 mph 20.7 mph 0.00 in Snow Light Snow
4:53 PM 28.0 °F 17.5 °F 21.0 °F 75% 29.94 in 1.0 mi NW 12.7 mph 18.4 mph 0.00 in Snow Light Snow
5:08 PM 26.6 °F 18.2 °F 19.4 °F 74% 29.90 in 1.8 mi NW 8.1 mph 18.4 mph 0.00 in Snow Light Snow
5:20 PM 26.6 °F 15.7 °F 21.2 °F 80% 29.91 in 2.0 mi NW 12.7 mph 19.6 mph 0.00 in Snow Light Snow
5:36 PM 26.6 °F 15.2 °F 21.2 °F 80% 29.91 in 1.2 mi NW 13.8 mph 20.7 mph 0.00 in Snow Light Snow
5:44 PM 26.6 °F 16.8 °F 21.2 °F 80% 29.92 in 1.0 mi WNW 10.4 mph 20.7 mph 0.00 in Snow Light Snow
5:51 PM 26.6 °F 18.2 °F 21.2 °F 80% 29.92 in 0.8 mi WNW 8.1 mph 17.3 mph 0.00 in Snow Light Snow
5:53 PM 26.1 °F 16.8 °F 21.0 °F 81% 29.96 in 0.8 mi WNW 9.2 mph 17.3 mph 0.00 in Snow Light Snow
6:14 PM 24.8 °F 15.3 °F 19.4 °F 80% 29.93 in 0.5 mi WNW 9.2 mph 19.6 mph 0.00 in Snow Snow
6:21 PM 24.8 °F 16.1 °F 19.4 °F 80% 29.93 in 0.5 mi NW 8.1 mph - 0.00 in Snow Snow
6:38 PM 24.8 °F 16.1 °F 19.4 °F 80% 29.94 in 1.0 mi NW 8.1 mph - 0.00 in Snow Light Snow
6:42 PM 24.8 °F 16.1 °F 19.4 °F 80% 29.94 in 2.0 mi NW 8.1 mph - 0.00 in Snow Light Snow
6:50 PM 24.8 °F 16.9 °F 19.4 °F 80% 29.94 in 4.0 mi NW 6.9 mph - 0.00 in Snow Light Snow
6:53 PM 25.0 °F 16.3 °F 19.9 °F 81% 29.99 in 3.0 mi NW 8.1 mph - 0.00 in Snow Light Snow
6:56 PM 24.8 °F 16.9 °F 19.4 °F 80% 29.94 in 2.5 mi NW 6.9 mph - 0.00 in Snow Light Snow
7:05 PM 24.8 °F 16.1 °F 19.4 °F 80% 29.95 in 1.8 mi NW 8.1 mph - 0.00 in Snow Light Snow
7:08 PM 24.8 °F 16.1 °F 19.4 °F 80% 29.95 in 2.0 mi NW 8.1 mph - 0.00 in Snow Light Snow
7:15 PM 24.8 °F 16.9 °F 19.4 °F 80% 29.95 in 1.8 mi NW 6.9 mph - 0.00 in Snow Light Snow
7:22 PM 24.8 °F 19.1 °F 19.4 °F 80% 29.95 in 1.0 mi NW 4.6 mph - 0.00 in Snow Light Snow
7:25 PM 24.8 °F 17.9 °F 19.4 °F 80% 29.95 in 1.2 mi NW 5.8 mph - 0.00 in Snow Light Snow
7:30 PM 26.6 °F 19.1 °F 19.4 °F 74% 29.95 in 3.0 mi NNW 6.9 mph - 0.00 in Snow Light Snow
7:43 PM 24.8 °F 16.9 °F 19.4 °F 80% 29.96 in 8.0 mi NNW 6.9 mph - 0.00 in   Overcast
7:51 PM 24.8 °F 17.9 °F 19.4 °F 80% 29.96 in 9.0 mi NNW 5.8 mph - 0.00 in   Overcast
7:53 PM 25.0 °F 18.1 °F 19.9 °F 81% 30.01 in 8.0 mi NNW 5.8 mph - 0.00 in   Overcast
8:06 PM 24.8 °F 19.1 °F 19.4 °F 80% 29.97 in 5.0 mi NNW 4.6 mph - 0.00 in Snow Light Snow
8:46 PM 24.8 °F 19.1 °F 17.6 °F 74% 29.98 in 10.0 mi NNW 4.6 mph - 0.00 in   Mostly Cloudy
8:53 PM 24.1 °F 18.2 °F 19.0 °F 81% 30.03 in 10.0 mi NNW 4.6 mph - 0.00 in   Overcast
9:46 PM 24.8 °F - 19.4 °F 80% 30.00 in 3.0 mi Calm Calm - 0.00 in Snow Light Snow
9:53 PM 24.1 °F 19.7 °F 19.0 °F 81% 30.04 in 3.0 mi Variable 3.5 mph - 0.00 in Snow Light Snow
10:33 PM 23.0 °F 18.4 °F 17.6 °F 80% 30.01 in 10.0 mi NW 3.5 mph - 0.00 in   Overcast
10:53 PM 24.1 °F 17.0 °F 18.0 °F 77% 30.04 in 2.5 mi NW 5.8 mph - 0.00 in Snow Light Snow
11:04 PM 24.8 °F 17.9 °F 17.6 °F 74% 30.02 in 3.0 mi NW 5.8 mph - 0.00 in Snow Light Snow
11:08 PM 24.8 °F 19.1 °F 19.4 °F 80% 30.02 in 1.8 mi WNW 4.6 mph - 0.00 in Snow Light Snow
11:12 PM 24.8 °F 14.6 °F 19.4 °F 80% 30.02 in 0.8 mi NW 10.4 mph - 0.00 in Snow Light Snow
11:21 PM 23.0 °F 13.1 °F 19.4 °F 86% 30.03 in 0.5 mi NNW 9.2 mph 18.4 mph 0.00 in Fog , Snow Snow
11:27 PM 21.2 °F 8.9 °F 17.6 °F 86% 30.03 in 1.2 mi NW 12.7 mph - 0.00 in Snow Light Snow
11:34 PM 21.2 °F 10.1 °F 17.6 °F 86% 30.03 in 3.0 mi NNW 10.4 mph 18.4 mph 0.00 in Snow Light Snow
11:37 PM 21.2 °F 10.9 °F 17.6 °F 86% 30.03 in 5.0 mi NW 9.2 mph 18.4 mph 0.00 in Snow Light Snow
11:49 PM 21.2 °F 11.7 °F 17.6 °F 86% 30.03 in 10.0 mi NW 8.1 mph - 0.00 in   Overcast
11:53 PM 21.9 °F 11.7 °F 17.1 °F 82% 30.07 in 9.0 mi NW 9.2 mph - 0.00 in   Overcast